Regional Weather Roundup
Issued by NWS

Home | Current Version | Previous Version | Text Only | Print | Product List | Glossary On
Versions: 1 2 3 4 5 6 7 8 9 10 11 12 13 14 15 16 17 18 19 20 21 22 23 24 25 26 27
000
ASUS42 KTBW 250717
RWRFL
FLORIDA REGIONAL WEATHER ROUNDUP
NATIONAL WEATHER SERVICE TAMPA BAY RUSKIN FL
300 AM EDT SAT MAR 25 2017

NOTE: "FAIR" INDICATES FEW OR NO CLOUDS BELOW 12,000 FEET WITH NO
SIGNIFICANT WEATHER AND/OR OBSTRUCTIONS TO VISIBILITY.

FLZ001>010-012>015-112-114-115-250800-
PANHANDLE FLORIDA

CITY           SKY/WX    TMP DP  RH WIND       PRES   REMARKS
PENSACOLA      MOCLDY    67  61  81 SE12      30.15F
PENSACOLA NAS  MOCLDY    67  62  84 SE13      30.14F
MILTON NAS     LGT RAIN  59  58  96 SE9       30.15
CRESTVIEW      PTCLDY    55  52  89 CALM      30.19F
DUKE FIELD     FAIR      62  55  77 SE6       30.16F
VALPARAISO     PTCLDY    64  58  79 SE9       30.17F
MARY ESTHER    CLEAR     66  61  84 SE3       30.16F
PANAMA CITY    FAIR      58  53  84 E6        30.18F
TYNDALL AFB    MOCLDY    65  55  69 E14       30.19F
APALACHICOLA   CLOUDY    68  62  81 SE13      30.20F

STATION/POSITION SKY/WX   TEMP    WIND        PRES    WAVE   SWELL
                          AIR SEA DIR/SP/G            HT/PER HT/PER
                          (F)     (DEG/KT/KT) (MB)    (FT/S) (FT/S)
30.1N   87.6W              69 69  140/ 16/ 19 1020.2F   5/ 7   2/15
29.2N   88.2W              71 73  130/ 19/ 25 1019.5F   7/ 8
28.8N   86.0W              71 71              1021.4F   3/ 7   2/ 7
PANAMA CITY BEAC              70  120/ 13/ 15 1022.4F
TOWER C                    68     130/ 20/ 22 1023.0F
28.5N   84.5W              70 68  130/ 17/ 21 1022.0F   3/ 4

$$
FLZ011-016>038-118-127-128-134-139-239-250800-
NORTH FLORIDA

CITY           SKY/WX    TMP DP  RH WIND       PRES   REMARKS
MARIANNA       CLOUDY    65  54  67 VRB6      30.20F
TALLAHASSEE    CLOUDY    61  53  75 SE7       30.23F
PERRY          CLOUDY    63  55  75 E7        30.26F
CROSS CITY     PTCLDY    55  54  94 CALM      30.24F
LAKE CITY      FAIR      59  55  88 E7        30.26F
GAINESVILLE    PTCLDY    56  54  93 E3        30.26F
WILLISTON      CLEAR     57  55  94 CALM      30.25F
PALATKA        CLOUDY    55  55 100 CALM      30.27F
MAYPORT NAS    MOCLDY    65  58  78 SE5       30.28F
JACKSONVILLE   MOCLDY    58  57  97 E3        30.27F
JAX NAS        MOCLDY    62  57  83 CALM      30.28F
FERNANDINA BEA MOCLDY    66  61  82 CALM      30.27F
ST AUGUSTINE   MOCLDY    65  59  81 E6        30.28F

STATION/POSITION SKY/WX   TEMP    WIND        PRES    WAVE   SWELL
                          AIR SEA DIR/SP/G            HT/PER HT/PER
                          (F)     (DEG/KT/KT) (MB)    (FT/S) (FT/S)
SHELL POINT      NOT AVBL
KEATON BEACH               61      70/  8/  9 1023.7F
CEDAR KEY                  66     100/ 10/ 12 1024.9F
FERNANDINA                    65  110/  2/  4 1026.2F
30.7N   81.3W                 64                N/A     4/ 8
MAYPORT                       65  160/  2/  4 1025.7F
31.4N   80.9W              64 62  130/ 10/ 10 1026.0F   5/ 8   5/ 8
ST AUGUSTINE               67 66  140/  8/  9 1025.9F

$$
FLZ040-043>046-052-053-057-058-063-144-250800-
INTERIOR CENTRAL FLORIDA

CITY           SKY/WX    TMP DP  RH WIND       PRES   REMARKS
OCALA          CLEAR     61  54  77 E3        30.25F
THE VILLAGES     N/A     61  57  88 CALM      30.16F
LEESBURG       CLEAR     64  56  75 E6        30.25F
SANFORD        MOCLDY    62  56  80 E6        30.24F
ORLANDO EXEC   PTCLDY    63  56  78 E5        30.24F
ORLANDO INTL   PTCLDY    62  55  77 E6        30.24F
KISSIMMEE      PTCLDY    63  57  81 NE5       30.25F
WINTER HAVEN   CLEAR     62  55  77 E6        30.24F
LAKELAND       CLEAR     61  55  82 E5        30.24F
BARTOW         FAIR      57  57 100 NE5       30.23F
OKEECHOBEE     CLEAR    N/A N/A N/A CALM      30.22F

$$
FLZ041-047-054-059-064-141-147-250800-
EAST CENTRAL FLORIDA

CITY           SKY/WX    TMP DP  RH WIND       PRES   REMARKS
DAYTONA BEACH  PTCLDY    66  59  78 SE3       30.26F
DELAND         CLEAR     57  55  94 CALM      30.25F
JFK SPACE CTR  PTCLDY    67  59  73 SE7       30.23F
CAPE CANAVERAL PTCLDY    69  57  66 E10       30.22F
PATRICK AFB    CLEAR     70  59  67 E15       30.22F
MELBOURNE      CLEAR     71  59  65 E13       30.23F
VERO BEACH     CLOUDY    68  63  84 E12       30.22F
FT PIERCE      MOCLDY    68  60  75 E9        30.22F
STUART         CLOUDY    72  59  64 SE10G17   30.22F

STATION/POSITION SKY/WX   TEMP    WIND        PRES    WAVE   SWELL
                          AIR SEA DIR/SP/G            HT/PER HT/PER
                          (F)     (DEG/KT/KT) (MB)    (FT/S) (FT/S)
TRIDENT PIER                  70   80/  9/ 15 1024.9F
28.4N   80.5W                 70                N/A     5/ 8   2/11
27.5N   80.2W                 70                N/A     7/10   2/11

$$
FLZ050-056-061-142-242-148-248-149-249-151-251-155-255-
160-260-250800-
WEST CENTRAL FLORIDA

CITY           SKY/WX    TMP DP  RH WIND       PRES   REMARKS
CRYSTAL RIVER  FAIR      55  54  94 CALM      30.24F
INVERNESS      FAIR      54  54 100 CALM      30.25F
BROOKSVILLE    PTCLDY    56  54  93 CALM      30.24F
CLEARWATER AIR FAIR      64  59  82 SE8       30.23S
ST PETE CLEARW CLEAR     66  58  75 E7        30.23F
TAMPA INTL     PTCLDY    66  57  72 E5        30.23F
TAMPA EXEC     PTCLDY    59  55  88 CALM      30.24F
PLANT CITY     CLEAR     63  59  88 E5        30.25F
MACDILL AFB    CLEAR     64  60  88 E8        30.22F
PETER O KNIGHT CLOUDY    64  61  88 E6        30.23F
ST PETERSBURG  CLEAR     66  59  78 E12       30.21F
SARASOTA       CLEAR     62  56  80 E7        30.20F
VENICE           N/A     63  59  88 NE7       30.21F

STATION/POSITION SKY/WX   TEMP    WIND        PRES    WAVE   SWELL
                          AIR SEA DIR/SP/G            HT/PER HT/PER
                          (F)     (DEG/KT/KT) (MB)    (FT/S) (FT/S)
27.3N   84.2W                 71                N/A     4/ 5
CLEARWATER BEACH NOT AVBL
MIDDLE TAMPA BAY                  110/  8/  8 1023.7F
VENICE                     63 69   60/  5/  6 1022.7F

$$
FLZ066-069-070-075>078-162-262-165-265-250800-
SOUTHWEST FLORIDA AND KEYS

CITY           SKY/WX    TMP DP  RH WIND       PRES   REMARKS
PUNTA GORDA    PTCLDY    56  55  97 NE6       30.21F
FT MYERS       PTCLDY    67  59  75 E7        30.19F
SOUTHWEST INTL PTCLDY    63  57  81 E7        30.19F
NAPLES         PTCLDY    66  62  87 E10       30.17F
IMMOKALEE      MOCLDY    59  57  94 NE6       30.18F
MARATHON       PTCLDY    75  66  73 E12G22    30.13F
KEY WEST NAS   LGT RAIN  73  66  78 E17       30.13F
KEY WEST INTL  PTCLDY    74  66  76 E14G21    30.13F

STATION/POSITION SKY/WX   TEMP    WIND        PRES    WAVE   SWELL
                          AIR SEA DIR/SP/G            HT/PER HT/PER
                          (F)     (DEG/KT/KT) (MB)    (FT/S) (FT/S)
NAPLES                        71              1021.7F
26.0N   85.6W              73 74  100/ 16/ 19 1020.9F   6/ 8   3/ 8
DRY TORTUGAS               72      90/ 21/ 24 1020.1F
SAND KEY                   75     110/ 25/ 28 1020.5F
LONG KEY                   74 74  100/ 18/ 19 1021.6F
MOLASSES REEF              74 76  110/ 20/ 22 1020.9F

$$
FLZ067-068-071>074-168-172>174-250800-
SOUTHEAST FLORIDA

CITY           SKY/WX    TMP DP  RH WIND       PRES   REMARKS
W PALM BEACH   MOCLDY    71  58  63 E15       30.21F
FT LAUDER-EXEC PTCLDY    73  59  61 E14       30.18F
FT LAUDERDALE  MOCLDY    73  61  65 E17       30.17F
POMPANO BEACH  PTCLDY    73  60  63 E15G22    30.18F
PEMBROKE PINES CLOUDY    73  61  65 E16       30.19F
OPA LOCKA      LGT RAIN N/A N/A N/A E6        30.18F
MIAMI          PTCLDY    70  62  76 NE8       30.17F
WEST KENDALL   CLEAR     70  61  73 E10       30.17F
HOMESTEAD      CLEAR     71  64  76 E10       30.16F

STATION/POSITION SKY/WX   TEMP    WIND        PRES    WAVE   SWELL
                          AIR SEA DIR/SP/G            HT/PER HT/PER
                          (F)     (DEG/KT/KT) (MB)    (FT/S) (FT/S)
PORT EVERGLADES            73      80/ 12/ 17 1022.3F
VIRGINIA KEY                      100/ 14/ 19 1022.1F
LAKE WORTH                         90/ 20/ 23   N/A
FOWEY ROCKS                73 75   90/ 23/ 25 1021.9F
SETTLEMENT POINT           70      80/ 19/ 22 1023.2F

$$





USA.gov is the U.S. government's official web portal to all federal, state and local government web resources and services.